カタログに戻る

CZ-6A DEB

運用中PO
NORAD 61076·DEBRIS·🇨🇳 China

打ち上げ Aug 6, 2024 から Taiyuan Satellite Launch Center

Loading…

次のパス (今後24時間)

TLE

最新Source: Space-Track

元期: Sep 14, 2026, 06:54 UTC

1 61076U 24140MS  26257.28795887  .00000373  00000-0  16778-3 0  9992
2 61076  89.0107 266.0330 0045738 245.7547 113.8860 14.19861910106798

AllMySatでCZ-6A DEBをリアルタイム追跡

Download on the App Store